Content
SEND FEEDBACK

Daily
Averages
Monthly
Summary
United States of America

CHESTERFIELD, MISSOURI


Home > North America > United States > Missouri
Elevation: 170 meters     Latitude: 38 41N     Longitude: 090 31W

WEATHER
 
SELECT A DAY
Number of Records: 203,268;   Date Range: 1/1/95 - 7/7/14
 
SHARE

PRINT THIS DATA

[ ← Previous Day ]
WEATHER ALMANAC - 10 MAY, 2013
[ Next Day → ]
[ °F ]   °C
Weather ElementAverageHighLow
Temperature16.8 °C19.4 °C (1:51 am)13 °C (11:39 pm)
Dewpoint12.9 °C15 °C (1:51 am)9 °C (11:39 pm)
Humidity78.3 %90 % (3:51 pm)70 % (1:51 pm)
Barometer1012.9 hPa1016.3 hPa (11:39 pm)1010.2 hPa (2:51 am)
Wind Speed14.5 km/h22.2 km/h (5:51 pm)
Weather ElementAverage
Visibility15.4 km
Wind DirectionWNW (301.1 °)

Weather ElementTotal
Precipitation---
Heating Degree Days2.1 (Base 18.3)
Growing Degree Days6.2 (Base 10)
Averaged from 27 records on 10 May, 2013
WEATHER CONDITIONS BREAKOUT
WIND DIRECTION BREAKOUT
WEATHER BY HOUR - 10 MAY, 2013
[ °F ]   °C
Local TimeTemperatureDewpointHumidityBarometerVisibilityWind DirectionWind SpeedGust SpeedPrecipitationEventsConditions
1:51 AM19.4 °C15 °C76 %1011.2 hPa16.1 kmSSW (210°)13 km/h0 mmOvercast
2:51 AM18.3 °C15 °C81 %1010.2 hPa16.1 kmSW (220°)5.6 km/hOvercast
3:51 AM17.8 °C15 °C84 %1010.5 hPa16.1 kmWSW (240°)7.4 km/hOvercast
4:51 AM17.2 °C14.4 °C84 %1010.2 hPa16.1 kmWSW (240°)5.6 km/hMostly Cloudy
5:51 AM16.7 °C13.9 °C84 %1010.8 hPa16.1 kmWSW (240°)5.6 km/hMostly Cloudy
6:51 AM17.2 °C13.9 °C81 %1011.2 hPa16.1 kmWest (260°)13 km/hMostly Cloudy
7:51 AM18.9 °C14.4 °C75 %1011.2 hPa16.1 kmWest (280°)13 km/hMostly Cloudy
8:07 AM18 °C14 °C77 %1011.9 hPa16.1 kmWNW (300°)14.8 km/hOvercast
8:51 AM18.9 °C15 °C78 %1011.9 hPa16.1 kmNW (310°)7.4 km/hOvercast
9:51 AM18.3 °C14.4 °C78 %1011.9 hPa16.1 kmNW (320°)16.7 km/hOvercast
10:28 AM19 °C14 °C73 %1012.5 hPa16.1 kmNW (320°)18.5 km/hOvercast
10:51 AM18.9 °C14.4 °C75 %1012.5 hPa16.1 kmWNW (300°)14.8 km/hOvercast
11:51 AM18.3 °C13.3 °C73 %1012.9 hPa16.1 kmWNW (300°)13 km/hOvercast
12:51 PM18.3 °C13.3 °C73 %1012.9 hPa16.1 kmNW (310°)18.5 km/hOvercast
1:51 PM18.3 °C12.8 °C70 %1012.9 hPa16.1 kmWNW (300°)13 km/hOvercast
2:51 PM17.2 °C13.3 °C78 %1013.5 hPa16.1 kmNNW (330°)18.5 km/hOvercast
3:44 PM16 °C14 °C88 %1013.9 hPa8 kmNW (320°)16.7 km/h0 mmRainLight Rain
3:51 PM15.6 °C13.9 °C90 %1013.5 hPa8 kmNW (320°)20.4 km/h0 mmRainLight Rain
4:51 PM16.1 °C12.8 °C81 %1013.9 hPa16.1 kmNW (320°)20.4 km/h0 mmOvercast
5:51 PM15.6 °C11.7 °C78 %1013.9 hPa16.1 kmNW (320°)22.2 km/hOvercast
6:51 PM15.6 °C11.7 °C78 %1014.6 hPa16.1 kmNNW (330°)16.7 km/hOvercast
7:51 PM15 °C10.6 °C75 %1014.6 hPa16.1 kmNW (320°)20.4 km/hOvercast
8:51 PM14.4 °C10 °C75 %1014.6 hPa16.1 kmNNW (340°)16.7 km/hOvercast
9:51 PM13.9 °C10 °C77 %1015.6 hPa16.1 kmNorth (350°)16.7 km/hOvercast
10:51 PM13.3 °C9.4 °C77 %1015.6 hPa16.1 kmNorth (350°)14.8 km/hMostly Cloudy
11:39 PM13 °C9 °C77 %1016.3 hPa16.1 kmNNW (340°)14.8 km/hOvercast
11:51 PM13.3 °C9.4 °C77 %1016.3 hPa16.1 kmNNW (340°)11.1 km/hOvercast
Hourly data recorded from KSTL, located 0 kilometers away from Chesterfield, Missouri







STORIES FROM OUR PARTNERS